Weather History for Columbia, MO

Change the Weather History Date:

Thursday, December 20, 2012

  Actual Average Record
Temperature  
Mean Temperature 40 °F 31 °F  
Max Temperature 56 °F 40 °F 69 °F (1949)
Min Temperature 23 °F 22 °F -23 °F (1901)
Degree Days  
Heating Degree Days 25 34  
Month to date heating degree days 410 627  
Since 1 July heating degree days 1377 1612  
Cooling Degree Days 0 0  
Month to date cooling degree days 0 0  
Year to date cooling degree days 1896 1249  
Moisture  
Dew Point 30 °F    
Average Humidity 87    
Maximum Humidity 100    
Minimum Humidity 74    
Precipitation  
Precipitation 0.11 in 0.07 in 1.01 in (1991)
Month to date precipitation 1.31 1.67  
Year to date precipitation 30.45 41.85  
Snow  
Snow 1.20 in 0.10 in 2.00 in (1960)
Month to date snowfall 2.4 2.5  
Since 1 July snowfall 2.4 3.4  
Snow Depth 0.00 in    
Sea Level Pressure  
Sea Level Pressure 29.63 in    
Wind  
Wind Speed 22 mph (West)    
Max Wind Speed 38 mph    
Max Gust Speed 49 mph    
Visibility 6 miles    
Events Fog , Rain , Snow    
T = Trace of Precipitation, MM = Missing Value Source: NWS Daily Summary

Daily Weather History Graph

Daily Weather History Graph

Search for Another Location

Airport:

Trip Planner

Search our weather history database for the weather conditions in past years. The results will help you decide how hot, cold, wet, or windy it might be!

Date:

Astronomy

Dec. 20, 2012 Rise Set
Actual Time 7:23 AM CST 4:50 PM CST
Civil Twilight 6:53 AM CST 5:20 PM CST
Nautical Twilight 6:19 AM CST 5:53 PM CST
Astronomical Twilight 5:47 AM CST 6:26 PM CST
Moon 12:05 PM CST (12/20) 12:13 AM CST (12/20)
Length of Visible Light 10h 26m
Length of Day
9h 26m
First Quarter, 55% of the Moon is Illuminated
Dec 20
First Quarter
Dec 28
Full
Jan 4
Last Quarter
Jan 11
New
Jan 18
First Quarter

Hourly Weather History & Observations

Time (CST) Temp. Windchill Dew Point Humidity Pressure Visibility Wind Dir Wind Speed Gust Speed Precip Events Conditions
12:02 AM 48.2 °F - 48.2 °F 100% 29.42 in 3.0 mi SE 11.5 mph - 0.00 in Rain Light Rain
12:54 AM 51.1 °F - 48.9 °F 92% 29.37 in 6.0 mi SE 12.7 mph - 0.01 in   Scattered Clouds
1:54 AM 55.9 °F - 53.1 °F 90% 29.32 in 10.0 mi SSE 17.3 mph - N/A   Mostly Cloudy
2:54 AM 55.0 °F - 52.0 °F 89% 29.29 in 10.0 mi SSE 12.7 mph - N/A   Overcast
3:54 AM 54.0 °F - 52.0 °F 93% 29.24 in 10.0 mi SSE 11.5 mph - N/A   Overcast
4:10 AM 53.6 °F - 51.8 °F 94% 29.23 in 10.0 mi SSE 13.8 mph - N/A   Overcast
4:54 AM 55.0 °F - 51.1 °F 86% 29.21 in 10.0 mi South 16.1 mph 21.9 mph N/A   Overcast
5:14 AM 53.6 °F - 44.6 °F 72% 29.24 in 10.0 mi WSW 36.8 mph 48.3 mph N/A   Overcast
5:54 AM 44.6 °F 36.6 °F 39.2 °F 81% 29.27 in 10.0 mi WSW 19.6 mph 41.4 mph N/A   Overcast
6:05 AM 42.8 °F 32.9 °F 37.4 °F 81% 29.28 in 10.0 mi SW 26.5 mph 35.7 mph N/A   Overcast
6:54 AM 39.0 °F 28.0 °F 36.0 °F 89% 29.32 in 6.0 mi WSW 25.3 mph 34.5 mph 0.00 in Rain Light Rain
7:16 AM 37.4 °F 26.6 °F 35.6 °F 93% 29.32 in 4.0 mi WSW 21.9 mph 31.1 mph 0.00 in Rain Light Rain
7:54 AM 34.0 °F 22.7 °F 32.0 °F 92% 29.37 in 1.8 mi West 19.6 mph 33.4 mph 0.01 in Snow Light Snow
8:10 AM 33.8 °F 22.2 °F 32.0 °F 93% 29.36 in 0.8 mi West 20.7 mph 33.4 mph 0.01 in Snow Light Snow
8:54 AM 33.1 °F 20.6 °F 32.0 °F 96% 29.42 in 0.5 mi WNW 23.0 mph 34.5 mph 0.03 in Fog , Snow Snow
9:54 AM 30.9 °F 17.2 °F 28.9 °F 92% 29.50 in 0.5 mi WNW 25.3 mph 46.0 mph 0.02 in Fog , Snow Light Snow
10:32 AM 30.2 °F 15.7 °F 26.6 °F 86% 29.54 in 0.5 mi WNW 27.6 mph 40.3 mph 0.00 in Fog , Snow Light Snow
10:40 AM 30.2 °F 15.4 °F 26.6 °F 86% 29.54 in 0.2 mi WNW 28.8 mph 39.1 mph 0.00 in Fog , Snow Snow
10:54 AM 30.0 °F 16.6 °F 27.0 °F 88% 29.57 in 0.2 mi WNW 23.0 mph 40.3 mph 0.00 in Fog , Snow Snow
11:26 AM 30.2 °F 16.5 °F 26.6 °F 86% 29.59 in 0.5 mi WNW 24.2 mph 43.7 mph 0.01 in Fog , Snow Snow
11:42 AM 30.2 °F 15.7 °F 26.6 °F 86% 29.61 in 0.5 mi WNW 27.6 mph 41.4 mph 0.02 in Fog , Snow Snow
11:54 AM 30.0 °F 14.5 °F 27.0 °F 88% 29.63 in 0.5 mi WNW 32.2 mph 48.3 mph 0.02 in Fog , Snow Snow
12:54 PM 28.9 °F 14.5 °F 27.0 °F 92% 29.69 in 0.5 mi WNW 25.3 mph 42.6 mph 0.01 in Fog , Snow Snow
1:50 PM 28.4 °F 12.0 °F 24.8 °F 86% 29.74 in 1.0 mi WNW 33.4 mph 44.9 mph 0.01 in Snow Light Snow
1:54 PM 28.0 °F 11.5 °F 23.0 °F 81% 29.75 in 1.0 mi WNW 33.4 mph 44.9 mph 0.01 in Snow Light Snow
2:09 PM 26.6 °F 10.6 °F 23.0 °F 86% 29.76 in 3.0 mi WNW 28.8 mph 42.6 mph 0.00 in   Overcast
2:21 PM 26.6 °F 10.8 °F 23.0 °F 86% 29.77 in 4.0 mi WNW 27.6 mph 40.3 mph 0.00 in   Overcast
2:54 PM 28.0 °F 13.0 °F 21.9 °F 78% 29.82 in 10.0 mi WNW 26.5 mph 36.8 mph 0.00 in   Overcast
3:54 PM 27.0 °F 12.2 °F 21.0 °F 78% 29.88 in 10.0 mi WNW 24.2 mph 42.6 mph N/A   Overcast
4:54 PM 27.0 °F 12.5 °F 21.0 °F 78% 29.93 in 10.0 mi WNW 23.0 mph 34.5 mph N/A   Overcast
5:54 PM 27.0 °F 10.8 °F 19.9 °F 75% 29.97 in 10.0 mi WNW 29.9 mph 40.3 mph N/A   Overcast
6:54 PM 26.1 °F 11.0 °F 19.0 °F 75% 30.01 in 10.0 mi WNW 24.2 mph 33.4 mph N/A   Mostly Cloudy
7:20 PM 24.8 °F 9.3 °F 19.4 °F 80% 30.00 in 10.0 mi WNW 24.2 mph 33.4 mph N/A   Scattered Clouds
7:54 PM 25.0 °F 9.9 °F 18.0 °F 75% 30.05 in 10.0 mi WNW 23.0 mph 29.9 mph N/A   Partly Cloudy
8:54 PM 25.0 °F 11.7 °F 19.9 °F 81% 30.07 in 10.0 mi WNW 17.3 mph 29.9 mph N/A   Clear
9:54 PM 24.1 °F 9.8 °F 17.1 °F 75% 30.08 in 10.0 mi WNW 19.6 mph - N/A   Clear
10:54 PM 24.1 °F 9.8 °F 17.1 °F 75% 30.10 in 10.0 mi West 19.6 mph 29.9 mph N/A   Clear
11:54 PM 23.0 °F 8.3 °F 16.0 °F 74% 30.13 in 10.0 mi West 19.6 mph - N/A   Clear